Theta_e
299 301 301 301 301 300 300 300 300 300 303 302 302 302 301 302 303 302 302 303 306 308 308 306 308 310 309 310 312 312 314 316 317 319 318 315 319 316 315 315 324 325 325 330 329 331 331 321 321 322 323 324 322 321
300 301 301 301 300 300 301 300 303 302 301 300 302 301 301 302 302 302 303 302 304 307 307 306 308 309 309 309 311 312 315 315 315 315 317 316 324 325 317 322 315 324 324 326 325 325 324 321 323 321 322 322 324 322
301 301 301 301 301 301 300 300 302 302 300 300 301 301 301 301 301 302 303 303 303 305 307 308 309 307 307 309 311 315 314 314 315 315 315 318 321 318 326 323 318 319 319 325 323 322 322 323 321 321 322 322 322 322
300 301 301 301 301 301 301 301 301 300 300 301 301 301 300 301 300 302 303 303 303 305 307 307 304 305 307 308 310 312 313 314 314 314 317 321 322 314 322 318 318 317 318 320 320 319 320 321 322 323 321 320 320 318
300 301 301 301 301 301 301 301 301 301 301 301 301 301 299 300 301 301 302 302 303 304 307 305 304 304 305 306 309 310 313 316 315 317 322 319 314 313 317 320 319 316 319 322 323 317 323 323 322 321 322 321 319 318
299 299 300 301 301 302 301 301 300 301 301 302 301 300 300 300 300 300 301 301 302 303 303 306 306 306 304 305 307 310 314 315 315 316 318 315 313 316 326 321 314 313 316 318 319 319 321 321 316 315 320 321 320 317
299 300 300 301 300 301 301 301 301 300 300 301 300 299 299 300 300 302 302 301 300 301 303 305 307 307 306 305 306 309 313 314 316 318 319 318 317 317 324 323 313 314 317 318 318 317 318 316 317 313 316 318 314 315
299 299 299 300 301 300 300 299 299 299 299 299 299 299 300 299 299 303 301 300 301 302 303 304 308 308 305 307 307 311 314 315 315 315 316 318 319 321 321 316 316 315 316 318 318 315 315 312 311 311 311 311 313 313
297 298 298 299 300 300 299 299 299 299 299 299 299 299 299 300 302 303 300 300 303 304 305 306 309 312 307 306 309 311 314 316 314 318 317 317 318 320 317 317 316 315 317 316 314 311 311 311 311 309 308 309 309 309
296 297 298 298 298 298 299 299 298 298 297 297 298 300 301 301 300 299 301 302 304 305 305 306 307 311 311 312 313 312 310 316 316 318 317 319 319 309 304 307 311 311 311 311 313 314 313 311 310 308 308 307 307 306
296 297 297 297 297 297 297 297 296 296 298 300 301 302 300 299 300 302 302 304 303 306 305 307 309 311 309 313 313 313 310 312 319 317 319 320 313 301 300 301 305 307 308 309 309 310 310 310 310 307 305 304 302 301
297 296 296 296 296 296 296 296 297 300 300 301 301 300 299 301 304 306 306 306 307 309 308 309 310 310 310 309 309 310 314 310 318 308 313 308 302 299 299 298 298 300 301 302 303 304 304 305 305 303 300 297 294 291
298 296 295 296 296 297 297 298 298 297 300 302 302 303 304 304 305 306 307 308 309 305 302 306 312 310 309 306 305 309 315 314 304 310 308 303 300 297 298 297 296 295 294 294 293 292 292 292 291 291 290 289 289 288
297 297 297 297 297 297 297 296 297 298 297 301 305 304 305 304 300 299 300 303 300 300 301 301 306 307 303 304 303 313 306 309 313 311 304 298 296 297 297 296 294 292 291 291 291 290 289 289 289 288 288 288 288 287
297 297 297 297 297 297 298 298 297 298 296 298 299 299 299 298 295 295 296 299 297 296 298 301 303 303 305 306 304 309 310 304 301 300 296 294 294 296 294 293 293 292 292 292 291 290 289 288 288 287 286 286 285 284
298 298 299 298 298 297 296 297 298 298 295 293 290 293 292 296 293 292 292 294 294 296 296 300 304 303 302 302 300 301 301 298 295 294 292 293 294 293 292 292 291 291 290 289 288 287 286 286 286 285 284 283 283 283
299 298 298 298 298 296 296 297 294 292 292 292 291 288 289 289 289 290 290 291 292 297 301 300 299 298 299 297 294 293 293 292 291 289 289 289 290 291 290 290 289 288 288 287 287 287 286 285 284 284 284 282 281 281
299 297 296 296 297 296 294 294 292 292 289 289 290 289 288 287 288 289 290 289 295 295 293 294 293 292 293 294 291 290 290 290 287 287 285 286 286 286 286 286 286 286 286 286 286 285 285 284 284 283 282 282 281 281
298 298 297 297 297 297 297 294 292 290 289 289 288 288 288 287 287 288 290 289 290 291 291 290 289 289 288 287 288 288 288 290 287 285 284 283 283 284 284 283 282 282 282 282 282 282 281 282 282 282 282 282 282 282
297 297 297 296 297 297 296 295 293 292 292 290 290 289 288 287 288 288 288 290 288 287 286 285 285 284 285 284 284 284 285 289 287 285 283 283 282 281 282 282 282 281 281 280 279 280 280 279 279 278 279 279 279 278
296 294 294 294 294 294 296 297 296 294 294 293 292 291 290 289 288 288 287 285 286 285 285 284 283 283 282 282 281 281 281 282 283 283 283 282 280 280 280 279 279 279 279 278 278 276 276 276 276 276 276 276 275 275
295 294 294 293 294 294 295 294 295 295 294 294 293 291 291 290 288 286 285 283 283 283 283 283 282 282 281 281 281 281 280 280 279 279 279 279 279 279 278 278 277 276 275 275 274 274 273 272 273 273 274 274 273 271
291 292 292 294 296 297 293 294 294 293 294 294 293 291 290 288 286 285 284 282 281 281 281 280 280 280 279 279 278 279 279 279 279 278 278 277 276 276 275 275 275 275 275 274 273 273 272 271 271 272 272 272 272 272
289 289 291 293 294 293 293 293 293 293 293 293 291 290 288 288 286 285 283 281 281 280 280 281 281 281 280 278 278 277 277 277 277 277 277 276 276 274 274 273 272 273 273 273 272 271 271 271 270 271 270 270 269 270
292 288 292 292 293 293 293 293 292 293 292 292 290 289 287 287 286 285 284 281 281 280 280 279 280 280 280 279 277 275 275 276 275 275 274 275 276 276 274 272 270 269 270 271 271 271 270 270 269 269 269 268 267 268
290 288 291 291 291 293 292 292 291 291 290 289 288 287 287 287 285 284 282 281 280 279 278 279 280 279 278 277 277 275 274 274 274 273 271 271 271 272 273 272 272 269 268 268 268 269 268 268 268 268 268 268 267 267
290 289 288 287 289 289 290 289 289 289 288 289 288 286 287 285 283 280 279 279 278 276 276 276 277 277 276 274 273 272 271 270 270 270 269 268 268 268 268 268 267 266 266 266 266 267 267 267 267 267 267 266 266 265
287 287 286 286 286 287 286 287 287 286 286 284 285 282 283 282 281 279 278 275 275 274 274 273 274 274 274 273 272 272 271 270 269 269 269 269 267 266 266 266 264 264 264 264 264 265 266 265 265 265 265 265 264 264
286 285 284 282 284 283 283 285 284 281 280 283 283 280 278 276 276 276 275 274 274 274 274 273 272 271 271 270 270 270 270 270 271 270 270 271 270 268 266 265 265 265 264 265 264 264 264 264 264 263 263 264 264 264
285 286 284 281 282 282 280 280 279 277 277 278 276 275 275 274 272 274 274 274 275 274 273 273 272 273 272 272 271 269 267 267 266 268 270 269 268 265 265 265 265 264 264 264 264 264 264 263 264 264 264 263 264 262
285 286 284 283 281 279 278 277 277 277 277 277 277 278 276 274 272 272 272 272 272 272 272 271 271 271 271 271 271 270 269 266 263 264 264 265 265 265 264 263 263 263 263 263 263 263 263 263 264 264 264 263 262 262
284 285 284 282 280 278 279 281 281 280 279 279 277 276 275 276 276 273 271 271 272 273 271 271 272 271 268 267 266 265 265 265 265 263 263 264 265 264 263 263 263 263 262 262 263 263 263 262 263 263 263 263 262 261
284 284 283 282 280 281 280 282 281 279 279 279 277 277 276 277 276 274 268 269 271 272 271 270 269 267 266 265 266 265 264 264 263 263 263 262 262 262 261 262 262 262 262 262 262 263 262 262 262 262 261 261 261 260
Wind_Speed
29 25 19 16 12 14 15 20 26 24 28 41 55 58 59 60 57 42 30 37 17 5 5 9 13 17 18 18 16 20 14 9 9 9 9 7 7 10 13 16 14 9 7 6 9 11 14 2 10 14 14 16 6 9
26 12 11 11 7 5 3 8 18 30 33 46 50 53 54 55 51 37 17 38 25 0 3 2 6 1 2 17 17 16 12 19 9 10 7 7 5 2 11 10 15 13 9 8 8 5 9 12 14 16 16 12 9 10
20 7 9 7 4 3 8 13 25 32 38 40 47 48 52 52 46 25 25 28 21 3 4 5 6 3 5 10 14 13 13 15 17 13 6 4 4 8 7 10 10 15 11 11 12 11 14 10 15 15 8 12 12 8
19 12 8 8 6 10 18 21 26 27 29 41 43 46 46 54 42 24 24 27 20 4 3 4 2 4 2 10 13 11 14 24 7 9 6 4 5 7 7 9 11 11 9 12 16 17 20 14 9 10 14 10 9 7
19 20 11 10 6 12 19 25 27 31 36 41 44 51 49 41 37 26 19 12 14 4 3 3 1 9 8 5 15 16 15 10 9 9 5 6 7 6 4 6 11 12 13 9 8 11 9 13 9 7 11 13 11 12
22 17 25 28 31 28 18 23 28 26 33 46 60 51 47 43 41 26 4 4 10 9 2 1 4 7 15 11 12 16 15 11 9 11 8 7 11 9 4 9 14 16 13 14 14 14 9 6 6 3 5 12 10 11
22 28 26 25 25 37 39 47 49 46 47 55 45 43 40 34 24 6 2 13 13 8 1 2 3 3 12 7 3 7 13 10 7 8 6 8 7 5 5 9 8 8 6 12 11 3 10 7 4 3 6 7 4 8
24 26 25 35 38 39 38 35 42 46 50 50 45 37 33 28 17 8 8 23 19 5 2 0 3 2 9 4 3 9 9 11 8 5 5 10 6 4 6 10 15 17 17 10 7 7 7 3 2 3 2 4 9 10
24 28 30 32 41 43 45 49 49 46 45 43 40 34 23 7 3 6 17 17 2 1 4 3 2 2 8 4 5 3 6 8 4 7 9 5 7 7 7 10 11 12 8 8 2 4 5 7 6 5 6 7 8 9
24 27 32 34 37 40 43 44 43 43 43 41 24 4 4 4 24 26 4 3 2 3 2 2 3 3 4 5 4 4 1 5 6 5 7 5 5 10 16 15 11 11 10 7 6 6 6 8 6 6 6 6 7 9
22 27 28 29 31 32 35 37 38 39 21 3 3 3 14 17 2 1 3 4 3 4 4 4 8 5 2 1 2 2 2 2 4 3 6 5 2 9 13 13 13 12 8 7 8 8 6 6 4 5 5 6 9 11
27 27 28 27 27 27 29 31 27 7 7 5 11 15 8 3 3 1 2 2 4 2 3 3 3 3 2 1 2 2 3 2 3 2 2 3 5 14 11 11 12 11 8 11 12 10 9 10 6 7 9 11 15 21
35 31 30 29 29 31 22 10 9 8 5 3 1 3 1 2 1 2 4 2 1 1 2 3 1 1 2 2 1 0 2 3 3 2 3 5 10 13 10 8 8 10 11 12 14 15 19 18 21 18 12 20 22 22
35 33 32 30 25 16 8 3 5 6 11 4 3 4 4 5 6 4 4 3 3 3 4 1 1 2 2 2 1 3 2 0 3 3 5 7 14 10 8 7 8 12 12 13 13 13 14 15 17 20 18 20 23 22
34 32 28 24 20 15 11 3 7 10 6 5 6 5 6 4 5 5 6 3 3 3 3 1 1 3 4 2 4 3 3 5 7 4 5 9 13 8 10 10 10 11 10 12 12 13 15 20 21 22 24 26 26 25
25 18 9 9 15 13 11 13 8 4 3 4 8 5 8 4 8 9 8 5 5 5 2 1 2 3 4 3 5 7 4 6 4 5 7 10 10 11 11 11 13 13 14 16 19 21 23 22 23 25 28 28 27 26
9 4 10 10 8 10 8 5 5 6 5 5 5 9 6 4 6 8 9 8 7 4 3 3 5 7 3 4 4 5 4 5 6 7 7 12 13 12 12 13 14 18 20 22 23 24 24 23 24 26 20 22 24 24
9 17 18 16 7 10 11 8 5 5 7 5 2 6 6 4 7 7 6 7 6 3 3 5 3 7 6 4 4 4 5 5 6 7 9 10 12 17 18 15 21 22 23 23 22 22 22 21 21 18 20 19 20 19
17 13 9 6 7 5 4 5 5 4 5 2 7 6 2 5 8 8 7 6 8 7 4 4 7 5 5 4 5 5 4 5 6 7 9 18 20 18 19 22 24 25 25 24 22 22 23 24 20 18 16 16 16 14
19 14 9 5 2 3 5 3 4 5 3 3 4 9 10 9 8 10 11 9 8 4 7 6 5 7 6 7 6 5 6 5 6 7 9 10 17 20 22 20 19 19 21 22 23 21 20 21 22 20 19 18 16 15
16 11 10 9 6 10 4 3 4 4 4 3 3 6 6 9 12 11 12 10 9 5 6 7 8 8 14 14 15 15 16 15 9 9 8 9 16 18 18 19 20 21 20 19 18 19 20 18 17 16 16 16 14 13
7 6 3 7 4 4 5 8 3 2 3 3 3 4 4 6 7 9 10 9 7 9 7 8 8 8 10 12 15 18 17 19 19 18 17 16 9 12 15 17 17 17 18 17 17 16 16 15 13 14 13 12 11 13
5 3 4 4 4 4 3 3 4 4 3 2 3 4 4 4 4 4 5 5 5 8 11 11 14 15 15 17 18 19 17 16 15 15 15 16 16 16 16 17 17 15 14 15 14 13 13 12 13 12 11 11 10 10
6 5 4 4 5 4 2 3 3 3 3 4 3 4 4 4 3 4 5 3 4 8 7 8 7 7 12 14 11 14 14 13 14 15 14 12 12 14 14 15 15 14 13 11 11 12 11 11 11 11 10 10 10 9
4 7 4 7 3 4 4 3 4 4 4 4 3 4 3 2 3 4 3 3 4 5 5 8 9 9 7 7 11 13 13 12 12 12 13 12 9 8 9 11 13 14 12 10 11 10 10 9 9 9 9 9 10 9
7 9 5 4 3 4 4 3 3 4 3 3 4 3 1 3 3 4 3 3 4 5 5 5 5 5 7 10 8 10 11 9 9 12 13 13 12 10 8 8 7 10 13 10 10 10 10 10 10 10 9 9 9 10
5 5 4 4 3 5 5 5 5 5 4 4 3 2 2 3 4 3 4 5 5 7 7 7 8 9 9 10 10 10 10 12 12 10 8 10 11 11 10 9 8 7 8 9 9 9 9 9 9 9 9 8 9 9
5 5 5 4 5 5 4 4 4 4 4 3 1 4 3 3 3 3 4 8 8 8 9 8 9 8 9 8 6 5 5 5 5 4 5 7 9 9 8 7 6 7 6 7 7 7 8 7 7 7 7 7 8 7
5 3 4 6 6 7 7 5 4 4 4 3 2 3 3 3 3 8 9 8 7 6 7 7 8 8 8 7 7 7 7 6 4 3 3 3 2 6 6 6 6 7 7 6 6 6 6 6 6 5 6 7 7 7
4 3 4 6 5 6 5 5 6 5 7 6 5 6 7 7 5 4 7 5 5 6 5 6 5 3 3 2 3 4 7 7 7 5 4 3 4 3 5 7 7 7 7 6 6 6 6 6 5 5 6 6 7 8
2 3 5 5 5 6 6 9 10 9 6 6 8 7 6 4 5 4 5 5 6 6 6 6 5 3 2 2 2 1 2 4 4 4 3 2 2 3 5 6 6 6 6 7 6 6 7 7 6 7 7 8 8 9
4 5 4 5 4 4 1 2 3 3 3 3 3 3 3 3 3 4 4 4 3 4 2 3 3 3 3 3 4 3 3 2 2 2 2 2 2 4 6 7 6 6 7 7 7 7 7 7 8 8 9 10 10 11
6 8 8 5 3 3 2 2 2 3 2 2 3 2 3 2 2 3 3 3 1 3 4 3 3 4 4 3 2 1 2 1 2 2 3 3 4 7 7 6 7 7 8 7 7 8 8 9 9 10 11 11 12 13
Wind_Direction
317 316 314 321 320 308 273 267 234 229 205 186 180 177 181 182 184 171 183 187 197 196 242 204 260 210 197 207 199 209 195 182 181 196 205 185 237 245 240 215 171 187 204 194 233 233 236 163 154 200 222 247 221 221
335 327 338 358 353 5 77 96 144 156 159 163 167 168 175 176 174 173 167 190 196 272 42 122 289 320 183 225 199 212 189 183 182 204 201 212 185 246 234 239 213 200 217 224 224 234 217 189 220 221 245 280 208 237
3 350 12 19 32 84 100 122 131 140 157 162 162 162 164 167 158 156 154 153 166 133 189 201 161 64 227 268 247 217 207 198 210 217 195 199 182 193 210 228 227 226 233 238 266 267 261 223 241 270 261 243 271 230
26 33 55 55 70 113 122 121 134 141 147 150 153 160 163 162 162 159 139 156 153 158 178 137 170 252 55 265 251 237 244 232 252 202 201 183 189 211 223 243 235 239 220 226 252 254 266 257 251 266 266 255 246 227
40 59 73 79 95 129 141 140 132 140 145 151 149 145 140 144 141 127 124 163 188 252 160 165 341 228 227 303 265 258 255 255 202 197 216 219 215 246 237 255 244 232 236 230 245 261 265 255 254 328 243 236 237 235
47 77 72 92 95 107 137 155 143 141 149 145 137 131 136 128 130 114 91 151 190 157 89 120 328 232 201 186 240 249 238 228 200 207 213 225 222 205 235 246 242 243 242 238 256 277 302 306 309 318 297 253 224 226
66 85 90 91 99 101 101 105 113 114 121 133 137 128 129 127 128 91 143 159 152 145 143 360 299 226 202 191 275 256 247 225 227 236 211 229 203 195 246 245 253 267 301 297 260 308 273 245 304 332 255 216 191 205
87 89 89 81 103 106 116 121 118 111 115 119 120 121 125 118 115 107 71 156 156 132 128 90 249 204 183 156 208 205 214 211 224 224 231 212 199 219 246 250 247 259 269 265 256 218 268 306 239 200 189 167 201 181
94 100 100 100 97 107 109 109 112 112 114 117 115 111 102 120 156 95 152 153 176 113 179 188 269 190 163 205 221 154 204 197 223 216 221 230 216 225 15 347 354 351 329 331 317 291 263 255 249 194 186 185 192 170
110 104 108 109 109 111 113 116 121 122 123 120 122 114 120 87 118 114 114 139 229 178 203 251 267 230 257 195 157 140 178 151 189 205 181 223 204 49 12 341 336 335 331 314 276 272 272 261 240 214 208 192 170 168
119 118 116 116 117 118 123 128 130 128 124 79 73 64 103 142 103 160 144 184 149 193 212 236 213 225 66 77 134 73 139 164 178 196 205 189 120 354 345 342 343 341 331 335 336 323 343 317 236 187 146 123 127 125
128 120 120 120 120 124 125 129 128 72 42 71 111 115 127 205 209 182 140 128 204 168 151 241 215 193 102 32 56 166 157 157 164 9 72 79 19 353 344 342 354 351 8 35 23 31 35 56 64 101 105 101 97 104
121 117 118 118 121 121 119 100 76 74 66 93 89 79 301 29 147 219 173 171 150 73 74 331 172 41 99 98 43 168 171 91 136 76 79 50 357 349 347 350 15 21 35 53 58 60 63 65 66 84 95 98 98 95
114 118 118 118 118 121 128 52 18 44 39 30 15 69 358 45 30 29 338 0 6 340 333 283 35 29 29 52 7 190 68 48 72 59 60 3 345 344 1 25 45 49 51 59 63 67 70 75 76 75 80 91 97 98
121 118 116 103 94 87 88 155 79 73 30 27 7 37 41 359 24 346 351 324 40 295 297 226 94 56 18 19 3 59 65 70 35 50 12 341 331 8 29 40 55 61 61 66 67 71 72 76 76 73 72 77 81 83
132 127 106 114 109 116 107 105 80 73 56 57 35 5 352 11 4 356 354 345 10 329 305 14 92 99 33 25 48 20 64 44 48 10 1 349 33 42 49 53 57 62 67 70 70 74 74 74 78 80 73 71 74 79
103 104 143 135 122 80 92 109 60 45 43 38 55 24 3 22 351 337 332 331 316 302 61 53 54 42 40 54 53 21 42 38 23 27 18 25 31 41 50 59 63 68 69 69 71 70 73 75 77 74 75 76 79 79
110 127 123 112 88 54 53 45 70 55 66 21 45 39 36 19 358 357 347 341 0 45 32 53 55 37 35 46 54 49 44 64 55 46 38 36 46 49 54 59 59 61 63 66 70 73 74 74 74 78 82 83 84 84
138 131 131 80 69 67 63 45 56 85 47 75 49 38 30 31 23 5 12 36 39 47 105 68 57 37 53 41 32 49 40 48 75 60 56 48 44 53 62 64 64 63 64 65 67 67 65 64 67 70 73 73 71 69
128 108 103 68 105 82 86 74 109 84 66 86 83 62 56 49 35 39 29 38 58 58 52 49 53 51 49 48 40 38 22 43 94 78 62 53 53 56 54 60 63 68 68 65 59 61 64 61 57 57 58 59 62 56
100 89 73 60 51 58 71 58 68 85 127 74 69 72 63 59 42 39 43 40 47 45 71 73 72 67 60 60 62 66 60 61 60 62 70 68 57 60 61 60 61 61 61 58 59 54 52 51 47 50 53 53 50 46
112 102 66 36 75 63 63 22 72 86 78 99 75 50 42 42 37 37 47 43 57 50 49 60 65 73 65 58 59 68 75 74 72 72 68 66 58 55 53 55 59 60 58 56 56 54 53 45 44 47 47 47 49 46
98 57 53 43 81 60 46 5 67 21 69 65 46 44 43 49 41 45 72 49 64 42 64 72 74 76 79 75 70 63 63 70 71 70 69 69 69 67 64 59 56 58 59 53 51 53 50 40 42 41 39 37 33 34
66 54 41 51 53 89 92 49 43 63 50 45 51 55 37 38 39 67 72 64 54 55 52 52 80 95 82 67 58 49 54 67 70 64 61 68 69 64 62 60 55 50 47 45 45 43 38 38 30 35 35 34 32 28
78 17 2 63 42 89 80 70 35 61 67 52 74 62 57 28 62 70 81 99 72 57 59 61 63 69 84 84 77 64 50 58 70 71 49 44 59 71 75 73 59 46 36 38 34 35 34 28 30 23 26 28 20 14
72 25 33 37 45 57 50 80 64 66 82 74 66 76 44 71 75 79 80 95 67 57 40 36 66 81 65 54 64 51 38 40 67 68 50 40 38 35 41 38 44 44 27 28 24 20 24 19 20 16 12 12 15 9
72 62 58 20 77 95 98 74 69 68 67 58 59 53 70 74 81 82 104 63 86 70 63 47 63 79 90 85 72 62 56 57 65 70 65 54 51 49 49 43 36 19 14 19 20 17 10 8 8 7 5 4 5 2
59 41 72 41 71 43 83 64 52 52 60 21 62 39 56 44 86 64 91 103 100 95 89 82 78 82 87 83 74 68 60 58 67 73 79 71 57 50 46 39 25 21 13 4 9 6 4 359 357 354 354 349 346 346
64 70 94 52 64 57 35 35 59 53 353 351 75 74 87 66 61 121 121 116 117 114 106 98 91 97 96 87 73 60 44 26 11 31 32 36 30 36 20 15 4 358 359 356 352 350 346 340 336 334 338 335 332 331
63 3 87 53 55 54 41 21 87 76 49 66 102 111 106 100 79 89 124 131 119 100 96 105 122 133 122 122 94 61 42 37 38 22 7 24 28 1 1 357 356 351 351 347 342 340 339 337 330 323 326 328 327 328
57 71 73 65 79 82 98 117 117 98 70 61 56 90 101 120 116 81 95 104 113 121 124 124 122 120 118 86 29 36 87 35 39 44 66 56 24 355 345 344 337 336 337 333 329 327 329 331 322 319 319 320 319 319
41 52 108 100 112 138 261 88 62 72 76 74 86 110 146 151 125 142 155 148 150 156 114 133 153 144 117 107 88 85 109 87 38 24 19 359 338 331 331 328 325 323 319 319 313 311 313 315 314 314 313 312 315 315
88 80 90 96 110 124 116 115 80 95 74 70 79 38 44 12 95 105 161 160 52 140 152 146 132 136 141 123 125 118 72 351 304 295 305 306 312 319 328 321 314 312 310 311 309 308 309 310 309 309 308 307 308 308